User: anonymous   Login
Location: Asni�res
(49.1337°N, 2.3555°E)
Time: 03:09:32
(UTC+00:00)
Language:

Cosmos 1726 - Orbit

View from above orbital plane
View from above orbital plane
View from above satellite
View from above satellite

Ground track
Ground track

The orbit data is extracted from the following two-line orbital elements,

1 16495U 86006A   22019.52975619  .00005395  00000-0  20350-3 0  9998
2 16495  82.4717 185.5818 0013320  67.7250 292.5399 15.26739837971656
Epoch (UTC): 19 January 2022 12:42:50
Eccentricity: 0.0013320
inclination: 82.4717°
perigee height: 476 km
apogee height: 495 km
right ascension of ascending node: 185.5818°
argument of perigee: 67.7250°
revolutions per day: 15.26739837
mean anomaly at epoch: 292.5399°
orbit number at epoch: 97165

The dashed part of the orbit path shows where the satellite is in the earth's shadow,  

DLR